Wind_Speed
30 29 29 28 27 27 27 27 28 27 27 26 26 26 26 26 27 27 27 27 28 28 28 28 29 29 29 31 32 35 37 39 40 40 40 39 39 38 38 38 37 37 36 35 33 31 30 30 28 27 26 25 24 23 23 23 22 22 21 21 20 20 20 20 20 20 20 20 19
30 30 29 29 28 28 28 28 28 28 28 28 28 27 27 27 27 27 27 27 28 28 27 27 27 28 29 30 32 34 36 37 39 39 39 39 38 38 38 37 37 37 36 35 34 32 31 31 30 28 26 26 25 24 23 23 23 22 21 21 20 19 19 20 20 20 20 20 20
30 30 30 30 29 29 29 29 29 29 29 28 28 29 29 28 28 28 27 27 27 27 27 26 27 27 28 29 31 32 34 36 38 38 38 38 38 38 37 37 37 36 36 36 35 34 33 32 31 29 27 26 25 24 24 23 23 22 22 22 20 19 18 19 19 19 19 19 20
30 30 31 31 32 32 31 30 30 29 29 28 28 29 29 30 29 29 28 27 26 26 27 27 26 26 27 29 30 32 33 35 36 37 37 37 37 37 37 37 36 36 36 36 36 35 34 33 31 30 28 27 26 25 24 23 23 22 21 21 21 20 19 19 18 18 18 18 19
31 32 32 33 33 34 33 32 31 29 28 27 27 28 29 29 29 28 27 26 26 27 27 27 27 27 27 29 30 31 32 34 35 36 36 36 36 37 37 37 37 36 36 36 36 36 35 34 32 30 29 28 27 26 25 24 22 22 21 20 20 20 20 19 18 17 17 17 17
31 32 33 33 34 34 33 33 32 30 28 27 27 28 28 27 27 27 26 26 26 26 26 27 27 27 28 28 29 30 32 33 34 35 35 36 36 36 36 37 37 37 36 36 36 36 36 35 32 30 29 28 27 26 25 23 22 21 21 20 20 20 19 19 18 18 17 18 18
31 32 33 33 33 33 33 33 32 30 29 28 28 28 28 27 27 27 27 27 26 25 26 27 27 28 28 28 29 30 31 32 33 34 35 35 35 35 36 36 37 37 37 36 36 36 36 35 33 31 29 27 26 26 25 24 23 22 21 21 20 20 19 20 19 18 18 19 19
31 32 33 33 33 33 33 33 32 30 29 28 29 29 29 28 28 28 27 27 26 25 25 26 28 28 28 28 29 30 31 32 32 33 34 34 34 35 35 36 36 37 37 37 36 36 36 35 33 31 29 27 26 26 25 25 25 24 22 21 20 20 20 20 21 20 19 20 20
30 31 32 32 32 33 33 33 32 31 30 29 29 29 28 28 28 27 27 26 26 25 25 26 27 28 28 29 30 31 31 32 32 32 33 34 34 35 35 36 36 37 37 37 37 37 36 34 33 31 30 28 26 26 26 26 26 26 24 22 21 20 20 21 21 21 20 20 21
30 30 30 30 31 31 31 31 32 31 31 30 29 28 27 27 27 27 27 26 26 25 25 26 27 28 28 29 30 31 32 32 33 33 33 34 35 36 36 36 37 37 37 37 37 37 36 34 33 32 31 29 28 27 26 26 27 27 26 24 23 22 21 21 21 21 21 21 22
31 30 29 29 29 29 29 29 30 30 30 30 29 28 27 26 26 26 26 26 26 26 26 27 27 28 29 30 31 32 32 33 33 34 34 35 36 37 38 38 39 39 39 38 37 37 36 35 34 33 32 30 29 28 26 26 26 27 27 26 25 24 23 23 22 21 21 21 22
30 29 29 28 28 27 27 27 28 28 28 29 29 28 27 26 26 26 26 26 26 27 27 27 28 29 30 31 32 32 33 33 34 34 35 36 37 38 38 39 40 40 40 40 38 37 37 36 35 34 33 31 29 28 27 26 26 27 28 28 27 26 25 25 24 22 22 21 22
28 27 27 27 26 26 26 26 26 26 27 27 28 27 27 26 26 25 25 26 26 27 27 28 29 30 31 32 32 33 33 34 35 35 36 37 37 38 38 39 40 40 40 40 39 38 37 37 37 36 35 32 30 29 28 27 27 28 28 28 28 27 27 26 25 24 23 22 22
25 25 25 25 25 25 25 26 26 25 26 26 27 26 26 26 26 25 25 26 26 27 28 29 30 31 32 32 33 34 34 35 36 36 37 37 37 38 38 39 40 40 40 40 39 39 38 38 38 37 36 34 31 29 29 29 29 29 29 29 29 29 28 27 26 25 24 23 23
24 24 24 24 24 24 25 25 25 25 25 25 26 25 25 25 25 25 25 26 27 28 28 29 30 31 32 32 33 34 34 35 36 36 37 37 37 38 38 39 39 40 40 40 39 39 39 39 38 38 36 35 32 30 29 29 30 30 30 30 30 30 29 27 26 25 25 25 25
23 23 23 23 23 24 25 25 25 24 24 24 24 25 25 24 24 25 25 26 27 28 29 30 31 31 31 32 32 33 33 34 34 35 36 36 37 37 38 38 39 39 40 40 39 39 39 39 38 37 36 35 33 31 30 30 30 31 31 31 31 30 29 28 27 26 26 26 25
22 22 22 22 23 24 25 25 24 24 23 24 24 24 24 24 24 25 26 27 27 28 29 31 31 31 30 30 31 32 32 33 33 34 35 36 36 37 37 38 39 40 40 40 40 39 39 38 37 36 35 34 33 32 32 32 31 31 31 31 30 30 30 29 28 27 27 26 26
22 22 22 22 23 24 25 26 26 25 25 24 24 24 24 25 25 26 27 28 28 28 29 31 31 31 31 30 30 31 32 33 34 34 35 36 36 37 37 38 39 40 40 41 40 40 39 38 36 35 34 33 33 33 33 33 32 32 31 31 31 31 30 29 29 28 27 27 27
21 21 22 23 24 25 26 26 26 27 26 26 25 25 25 26 27 27 28 29 30 30 30 30 30 31 31 31 31 32 33 34 35 35 35 36 36 36 37 38 38 39 40 40 40 39 38 37 35 34 33 32 32 32 33 33 32 31 31 31 31 31 31 30 29 28 28 27 27
21 21 22 23 24 25 25 26 27 27 27 27 26 26 27 28 29 30 31 32 32 32 32 31 31 32 32 32 33 34 34 35 35 36 36 36 35 36 36 37 37 38 39 39 39 38 37 36 35 34 33 32 32 32 32 32 31 31 31 31 31 31 31 30 30 29 28 28 28
21 22 22 23 23 24 25 26 26 27 27 27 27 28 28 28 29 31 32 33 33 32 33 33 33 34 34 34 34 35 35 35 35 35 36 35 36 36 37 37 37 37 38 38 38 37 36 35 34 34 33 33 32 32 32 31 30 31 31 31 31 31 31 30 30 29 29 29 30
22 22 22 22 23 24 24 25 25 26 26 26 27 27 27 27 28 30 31 31 31 31 32 32 33 34 35 34 34 35 35 34 34 35 35 35 36 36 37 36 36 36 37 37 37 37 36 35 34 34 34 33 33 33 33 31 30 30 30 31 31 31 30 30 29 29 29 30 30
21 21 21 21 22 23 23 24 24 24 24 25 25 25 25 26 26 27 27 28 28 29 29 30 30 31 33 33 33 33 34 33 33 33 34 35 35 36 36 35 35 35 36 37 37 37 36 35 34 34 34 34 34 34 33 32 31 30 30 30 30 30 29 29 28 28 29 29 29
20 20 21 21 21 22 23 23 23 23 23 24 24 24 24 24 24 24 25 25 26 27 27 27 27 28 29 30 31 31 32 32 32 32 33 34 34 35 35 34 34 35 36 37 38 38 37 36 35 35 35 35 35 34 33 33 32 31 30 30 30 29 28 28 28 28 28 28 28
20 20 20 21 21 21 22 22 22 23 23 24 24 23 23 23 23 23 24 25 26 26 26 26 25 25 26 27 28 29 30 31 32 32 33 33 33 34 34 34 34 35 36 37 38 38 37 36 35 35 36 36 35 34 33 33 32 32 31 30 29 28 27 26 26 27 27 28 28
20 20 20 20 21 21 21 22 22 23 23 23 23 24 24 23 23 23 24 25 26 26 25 25 24 24 24 25 26 27 29 30 32 32 33 33 33 33 34 34 34 34 35 36 37 37 37 36 35 35 36 36 35 33 31 31 32 32 31 30 29 28 26 26 26 26 26 27 27
20 20 20 21 20 21 21 22 22 22 23 23 23 24 24 24 24 23 24 24 24 25 25 24 24 23 23 24 25 27 29 30 31 32 33 33 33 33 34 34 34 34 35 36 36 36 36 36 35 34 34 35 35 34 32 31 31 31 31 30 29 28 27 27 26 26 25 25 25
20 20 20 21 21 21 21 22 22 22 23 23 23 24 24 24 24 24 24 23 23 23 23 24 24 23 22 23 25 28 30 31 31 31 32 32 33 33 34 33 34 34 35 36 36 36 37 36 36 35 34 33 34 34 33 32 31 30 30 29 29 29 28 28 28 26 25 24 24
21 20 20 20 21 21 21 21 22 22 23 23 23 24 24 24 24 24 24 23 23 23 23 23 22 22 23 24 26 28 30 31 31 31 31 31 32 33 34 33 34 35 35 35 36 36 37 37 36 35 34 33 33 33 32 31 29 28 27 27 27 27 28 28 27 25 24 23 23
22 20 20 21 21 21 21 21 22 22 22 22 22 23 23 23 24 23 23 23 23 23 23 23 23 23 24 26 26 27 29 31 32 32 32 32 32 33 33 33 34 35 35 35 36 37 37 37 37 36 35 33 32 31 31 29 27 26 25 25 25 26 26 26 26 25 24 23 23
21 20 20 20 21 21 22 22 22 21 22 22 22 22 23 23 23 24 23 23 23 23 24 24 25 26 27 27 27 28 29 30 32 32 33 33 33 33 33 34 35 36 36 36 37 37 37 37 37 37 36 35 32 31 30 28 27 25 24 23 24 24 24 24 24 24 24 23 23
20 20 20 20 21 21 22 21 21 21 21 22 22 22 23 23 24 24 23 23 23 23 23 25 26 27 28 28 27 28 29 30 31 32 33 34 34 34 34 34 35 37 37 36 37 37 37 37 37 37 36 36 34 32 31 29 27 26 24 24 24 25 24 24 24 24 24 24 23
20 20 20 20 21 21 21 21 21 21 21 21 22 23 23 23 23 23 23 23 23 23 24 25 27 28 28 28 28 27 28 29 30 31 32 32 33 33 32 33 34 36 36 36 37 37 37 37 37 36 36 36 34 32 30 28 26 25 25 25 25 25 25 25 24 24 24 24 23
21 21 20 20 21 21 21 20 20 20 21 21 22 23 23 23 23 23 23 23 23 24 25 25 26 27 27 27 27 27 27 27 28 29 30 30 31 31 32 32 32 33 34 35 36 36 36 36 36 36 36 36 35 33 30 28 26 25 25 25 25 25 25 26 25 25 25 24 24
21 20 20 21 21 21 20 20 20 20 20 21 22 22 23 23 23 23 23 23 23 23 24 25 25 25 25 26 26 27 26 26 26 27 28 28 29 30 31 31 31 31 31 33 34 35 36 36 36 36 36 36 34 32 30 28 27 26 26 26 26 26 26 26 26 26 26 26 25
20 19 20 20 21 20 20 20 20 20 20 21 22 22 22 23 23 22 22 22 22 22 23 23 24 24 24 24 25 25 26 26 25 26 26 27 28 29 30 30 30 29 29 31 33 34 35 35 36 36 35 35 33 31 29 27 26 27 27 27 26 26 26 26 26 26 26 26 26
21 20 20 20 21 21 20 20 20 20 21 22 22 22 22 23 22 22 22 21 21 22 22 22 22 23 23 24 24 24 25 26 26 25 26 26 27 28 28 29 29 28 29 29 31 33 35 35 36 36 35 34 32 29 27 26 25 26 26 26 27 26 25 25 25 25 26 27 27
22 21 21 21 21 21 21 20 20 21 21 22 22 22 22 22 21 21 21 21 21 22 22 22 22 23 23 23 23 24 25 25 25 25 25 26 27 27 27 27 28 28 28 29 31 33 34 35 36 36 35 34 31 28 26 25 25 25 25 25 25 25 25 24 23 23 24 26 26
21 21 21 21 22 22 22 21 21 22 22 22 22 22 22 21 21 21 21 21 22 22 22 22 22 22 23 22 22 23 24 25 25 25 25 26 26 27 27 27 27 28 29 29 30 32 34 35 36 36 36 34 31 27 25 24 24 24 24 23 23 23 23 22 22 22 22 24 24
22 21 21 21 22 22 22 22 22 23 22 22 22 22 22 21 21 21 21 21 21 22 22 22 22 22 22 21 21 22 22 23 24 25 26 26 26 26 27 27 28 28 28 29 30 32 34 35 35 36 36 34 31 27 25 23 23 23 23 22 21 21 21 21 21 21 21 21 22
23 22 21 21 22 22 22 23 23 23 23 22 22 22 22 21 21 20 20 20 20 21 21 20 21 21 21 21 21 21 21 22 23 24 25 26 26 26 27 27 28 28 28 29 30 32 33 34 35 36 36 34 31 27 25 23 22 22 22 21 20 19 19 19 19 20 19 19 19
Wind_Direction
234 234 234 235 235 235 236 237 237 236 236 235 234 233 231 229 227 227 227 225 225 225 225 225 224 224 223 221 219 218 218 217 216 215 214 214 214 214 215 215 215 214 213 211 210 210 211 211 211 212 214 216 216 216 216 216 216 215 215 216 218 220 222 223 224 225 226 227 228
234 234 235 235 235 236 236 237 237 236 235 235 234 234 233 231 230 229 229 227 227 226 226 226 225 225 223 222 221 220 219 218 217 216 215 214 214 214 214 214 214 214 213 211 210 209 210 210 210 211 213 215 215 215 216 217 216 215 215 216 218 220 221 223 226 226 227 228 230
235 235 235 234 234 234 235 236 236 236 235 235 235 234 234 233 232 231 230 230 229 228 227 226 225 224 223 222 221 220 220 219 218 216 215 215 215 214 214 214 213 213 212 211 210 209 210 210 210 211 212 213 214 214 215 216 216 216 216 217 218 219 221 223 225 226 227 228 229
236 235 235 234 234 234 234 235 236 236 235 235 235 235 234 233 232 232 231 231 230 229 227 226 225 223 222 221 220 219 219 219 218 217 215 215 215 214 214 213 213 212 212 211 210 210 210 210 210 211 212 213 214 214 214 215 215 215 216 217 218 219 220 223 224 224 225 226 228
237 236 236 236 235 235 235 236 236 236 236 235 235 235 234 233 232 231 231 230 229 229 228 226 225 224 222 221 219 218 218 218 217 216 215 215 215 215 214 213 213 212 212 211 211 211 211 210 210 211 212 213 214 214 215 215 214 214 216 217 218 219 220 222 222 223 224 225 226
238 238 238 238 237 237 237 237 237 237 236 236 235 234 233 232 231 230 229 229 229 229 228 226 225 224 222 220 218 217 217 216 216 215 215 214 214 214 214 213 213 212 212 211 211 211 211 210 210 211 213 214 214 215 215 214 213 214 216 218 218 218 220 221 221 222 222 224 225
240 239 239 239 238 238 238 237 237 237 236 236 236 234 233 233 231 230 230 230 230 229 228 226 224 223 221 219 218 216 215 215 215 215 214 214 213 213 213 213 213 212 212 211 211 211 211 211 210 211 212 212 213 214 215 214 213 214 215 217 218 218 219 220 221 222 223 224 225
242 241 241 240 239 239 238 238 237 236 236 236 236 236 235 234 233 232 231 231 230 229 227 226 224 223 221 219 218 216 215 215 214 214 213 213 213 212 213 213 213 212 212 212 211 210 210 210 210 211 211 211 212 213 213 213 214 215 216 216 218 219 220 221 221 222 224 225 225
243 243 242 242 241 240 239 239 237 237 236 236 237 237 237 236 235 233 232 231 230 229 228 227 225 223 221 220 219 217 216 216 215 214 213 213 212 212 212 212 212 212 212 212 211 211 210 209 210 210 211 211 211 212 213 214 215 215 216 217 218 220 221 222 222 223 225 226 227
244 244 243 242 241 240 240 239 238 238 237 238 239 239 238 237 235 234 233 232 231 230 228 227 225 223 221 220 219 219 218 217 216 215 214 213 213 212 212 212 212 212 211 211 211 210 210 209 209 210 211 211 212 213 213 214 215 216 216 218 220 221 222 223 223 224 225 227 228
246 245 244 242 242 241 240 239 239 238 238 239 239 239 239 237 236 234 233 232 231 230 228 227 225 223 221 220 220 219 219 218 217 216 215 214 214 213 213 213 213 212 212 211 210 209 208 209 209 210 211 212 212 212 213 213 215 216 218 220 222 222 223 223 223 224 225 228 229
248 247 246 245 244 242 241 239 239 239 239 239 239 239 238 237 236 235 234 233 231 230 229 227 225 223 222 221 220 220 219 219 218 217 216 216 215 215 214 214 213 213 212 211 209 208 208 208 209 210 210 211 211 212 212 213 214 217 219 222 223 223 223 224 224 224 226 228 230
250 248 247 246 244 242 240 239 239 239 239 239 239 238 238 237 237 235 234 232 231 231 230 228 226 225 223 222 221 220 220 219 219 218 217 217 216 215 214 214 214 213 212 211 209 208 208 208 209 209 209 209 210 211 212 213 215 217 220 222 223 223 224 224 225 225 226 228 230
252 250 248 246 244 242 240 239 239 239 239 239 239 238 237 237 236 235 233 232 231 231 229 228 227 226 225 223 222 221 221 220 219 219 218 217 216 215 215 214 214 213 212 211 210 209 208 209 210 210 210 209 209 211 213 215 217 219 222 223 223 224 224 225 225 225 226 227 230
254 251 249 247 244 242 241 240 240 240 240 239 239 238 237 236 235 234 232 232 231 231 229 228 227 227 226 225 224 223 222 221 220 219 218 217 216 216 215 214 213 213 212 211 210 209 209 210 210 210 210 209 210 211 214 216 219 222 224 225 225 225 225 225 225 225 226 227 230
256 253 251 248 245 243 241 240 240 240 240 239 239 238 236 235 234 233 231 230 230 230 229 228 228 227 226 226 224 224 223 222 221 220 219 217 216 215 215 214 213 212 212 211 210 209 210 210 211 211 210 210 211 213 215 218 221 224 226 226 226 226 226 226 226 226 227 228 230
257 255 252 248 246 244 242 241 241 240 240 239 238 237 235 234 233 231 230 229 229 228 228 228 228 227 226 225 224 223 222 222 222 221 220 219 217 216 215 214 214 213 212 211 210 209 209 210 210 210 210 211 213 215 218 220 222 225 226 227 227 228 228 228 228 228 229 230 231
259 256 254 250 248 246 244 243 242 241 241 239 238 236 235 234 232 231 230 229 228 227 227 228 228 227 226 225 224 223 222 222 222 222 222 221 220 218 217 216 215 214 212 211 210 209 209 208 207 208 209 212 215 218 220 222 224 226 227 228 228 229 229 230 230 230 230 231 233
261 258 256 252 250 248 247 245 244 243 242 241 239 237 235 234 232 231 230 229 228 227 227 227 226 226 226 225 224 223 223 222 223 223 223 222 221 220 219 218 216 214 212 211 210 209 208 207 206 207 209 213 216 218 221 222 224 226 227 228 229 230 230 231 232 232 232 233 235
263 261 258 256 254 252 250 249 247 246 245 243 241 238 236 234 233 231 230 229 228 227 226 225 224 224 224 224 223 223 223 223 223 223 223 222 221 221 219 218 216 214 212 211 210 208 207 205 206 207 210 213 215 218 220 222 224 225 227 228 229 230 231 232 233 234 234 235 236
266 264 262 260 258 256 254 253 251 249 247 245 243 240 238 236 235 233 232 232 230 228 225 224 223 222 222 221 221 221 222 222 222 222 222 222 221 220 219 218 215 214 212 210 209 207 205 205 207 209 211 213 215 217 219 221 222 224 226 228 229 231 232 233 234 235 236 237 238
270 268 266 264 262 260 258 256 255 252 250 248 246 244 242 240 238 237 237 235 232 229 227 225 224 223 222 221 220 220 221 221 221 221 221 221 221 220 219 217 215 213 211 209 207 206 206 207 209 211 212 213 215 217 219 220 221 223 225 227 229 231 232 234 235 236 237 239 240
275 272 270 267 265 262 260 258 256 254 252 251 249 247 246 244 243 242 241 239 236 233 231 229 228 227 225 223 222 221 220 220 220 220 220 220 219 218 217 214 212 211 209 208 206 206 206 208 210 211 212 213 215 217 219 220 221 222 224 226 228 230 232 234 235 237 239 240 240
278 274 271 269 267 264 261 259 257 255 253 252 250 249 247 246 246 245 243 241 239 236 235 234 233 231 229 227 225 223 221 219 218 218 218 218 217 216 214 212 211 209 209 208 207 207 208 208 209 210 212 213 215 217 219 220 221 222 223 225 227 229 231 234 235 237 239 240 241
280 275 272 269 266 264 262 259 256 254 253 252 251 249 248 246 245 245 243 242 240 239 237 237 236 235 233 230 228 226 223 221 219 218 216 216 215 214 212 211 210 209 209 209 208 209 209 209 209 210 211 213 215 217 219 220 221 222 223 224 225 228 230 232 235 237 239 240 241
281 276 272 268 266 263 261 258 256 255 253 252 251 249 247 245 244 243 242 241 240 239 238 237 237 236 234 231 229 227 225 223 221 219 216 214 213 212 211 210 210 210 210 209 209 209 209 210 210 210 211 212 213 215 216 219 221 222 223 224 225 226 229 231 234 236 238 240 241
281 276 272 270 266 262 259 258 257 255 253 252 250 248 247 245 243 242 241 240 239 239 237 236 235 234 233 232 230 227 226 224 223 220 218 215 213 211 210 211 211 211 211 210 209 209 209 210 209 210 211 211 213 214 215 217 219 221 222 223 224 226 228 231 234 236 238 239 240
280 277 274 270 265 261 259 258 255 253 252 250 248 247 246 245 242 240 239 238 238 236 235 234 233 232 232 231 229 228 226 225 223 221 219 217 215 213 212 212 213 213 213 212 210 210 210 209 208 208 209 211 213 215 216 217 218 219 221 222 224 226 229 232 235 237 238 239 240
280 276 273 269 265 262 260 256 253 252 251 250 248 247 245 243 241 239 237 236 235 233 231 230 229 228 228 228 228 228 226 225 223 221 219 217 216 216 215 214 215 215 215 213 212 211 211 210 209 208 208 209 212 215 216 217 217 218 219 221 224 227 230 233 235 237 237 238 240
281 276 271 268 265 263 259 256 254 253 252 250 248 245 243 241 239 236 235 233 231 230 229 228 227 226 226 226 226 226 225 223 222 220 218 217 216 216 216 216 216 217 216 214 213 212 212 211 210 208 207 208 210 214 216 216 216 216 218 220 224 226 228 230 233 235 236 238 239
283 276 271 268 265 263 260 258 256 254 251 249 246 243 241 238 237 235 234 232 231 231 229 228 227 226 227 226 225 224 223 222 220 219 218 217 217 217 217 217 217 218 217 215 214 213 212 212 210 209 208 208 209 212 215 215 215 215 215 218 221 223 225 227 230 232 233 234 236
284 277 272 268 266 264 262 260 257 254 251 248 245 243 240 238 238 237 235 233 232 230 229 228 227 227 228 227 226 224 223 222 220 219 218 218 218 218 218 218 218 218 218 216 214 213 213 212 211 210 209 209 209 211 214 216 216 215 216 219 221 223 224 226 229 231 231 232 234
288 280 274 269 267 265 264 261 257 254 250 247 245 242 241 240 239 238 236 234 231 229 228 227 226 227 227 227 226 225 224 223 222 221 220 219 219 219 219 219 219 219 218 216 215 214 213 212 211 210 210 210 209 210 212 213 214 216 217 220 222 224 225 226 228 230 232 233 234
292 284 276 271 268 266 264 261 257 253 250 247 245 243 242 240 239 238 235 233 231 230 229 229 228 228 228 228 227 226 225 225 224 223 222 221 221 220 220 221 221 221 219 217 215 214 213 212 211 210 210 211 212 212 211 210 212 215 218 220 223 225 226 227 229 230 232 234 235
294 285 278 273 270 268 264 261 257 253 249 247 245 244 242 241 239 237 236 234 233 232 231 231 231 231 231 230 229 227 227 226 225 224 223 222 222 221 222 223 224 223 220 218 216 214 213 212 211 210 210 212 214 215 213 210 212 215 218 220 223 225 227 228 230 232 234 236 237
296 286 279 275 272 269 265 261 257 253 250 247 246 245 243 242 240 239 238 236 234 232 232 232 232 231 231 230 230 228 227 227 226 225 224 222 222 222 223 224 225 224 222 219 217 215 213 212 211 210 210 212 215 216 214 212 213 216 219 221 223 226 228 230 232 234 236 237 238
298 289 281 277 273 270 267 262 258 254 250 248 247 246 245 243 242 241 238 235 233 232 232 232 231 230 229 229 229 228 228 227 226 225 224 223 222 222 223 225 226 225 224 221 218 216 214 212 211 210 210 212 214 215 214 213 214 217 219 222 225 227 229 231 234 236 238 239 239
298 291 284 278 275 272 269 265 259 255 253 251 250 249 247 245 243 241 238 233 231 231 232 231 230 229 229 228 228 229 228 227 226 225 224 223 222 222 223 225 226 226 224 222 219 217 215 213 211 210 210 212 213 213 212 212 214 217 219 222 225 227 229 231 233 236 238 239 239
298 292 286 280 276 273 270 266 261 258 256 256 254 252 249 245 243 241 238 234 231 231 232 232 231 230 229 228 228 228 228 227 225 224 224 224 223 223 223 224 226 226 224 222 220 218 216 214 212 211 211 212 212 211 210 210 213 216 219 221 224 227 229 230 232 235 237 238 238
301 295 288 281 277 274 270 267 264 261 260 258 257 254 251 247 245 242 239 235 233 232 232 232 232 231 229 227 227 227 227 227 225 224 223 223 224 223 223 224 225 226 225 223 221 219 218 216 213 212 211 212 212 211 209 210 212 215 218 220 222 224 227 229 230 233 235 237 238
302 297 291 284 278 274 271 268 266 265 262 260 257 256 254 251 248 244 239 236 233 231 231 231 231 230 228 226 225 226 226 225 224 223 223 223 223 223 223 224 225 225 224 223 221 220 219 217 215 213 212 212 212 210 209 209 211 214 216 218 219 221 224 227 229 231 233 236 237
Height
761 761 761 761 761 761 761 761 761 761 761 761 761 760 760 760 760 760 760 761 761 761 762 763 764 765 766 767 768 768 770 771 772 774 775 776 777 778 779 781 782 784 785 787 789 790 791 793 794 795 796 797 798 799 800 801 802 803 804 805 805 806 807 808 808 809 809 810 810
758 758 759 759 759 758 758 758 758 758 758 758 758 758 758 759 759 759 759 759 759 760 760 761 762 763 764 765 765 766 767 769 770 771 773 774 775 776 777 778 780 781 782 784 786 787 789 790 791 792 793 794 795 796 797 798 799 800 801 802 803 804 805 805 805 806 807 808 808
755 755 756 755 755 755 755 754 754 754 755 755 755 755 756 756 756 757 757 757 758 758 759 759 760 760 761 762 764 765 765 766 768 769 771 772 773 774 775 776 777 778 780 781 783 784 785 787 788 789 790 791 792 793 795 795 797 798 799 800 801 801 802 802 803 804 805 805 805
752 752 752 752 751 751 751 750 751 751 752 752 753 753 753 753 753 754 755 755 756 756 756 757 757 758 759 760 761 762 763 764 765 767 768 770 771 772 773 774 775 776 777 779 780 781 782 784 785 786 787 788 789 790 792 793 794 795 796 798 798 799 800 800 800 801 802 802 803
749 749 748 748 747 747 748 748 748 749 749 750 750 750 750 750 750 751 752 753 753 753 753 754 755 756 756 757 758 759 760 761 763 765 766 767 769 770 770 772 773 773 775 776 777 778 780 781 782 783 784 785 786 788 789 790 792 793 794 795 796 796 797 798 798 799 800 800 800
745 745 745 745 745 745 745 745 746 746 747 748 748 747 747 747 748 749 749 750 750 750 751 752 753 753 754 755 755 756 757 759 760 762 763 765 766 767 769 770 770 771 772 773 775 776 777 778 780 780 781 783 784 785 787 788 790 791 792 793 794 794 795 795 796 796 797 797 798
742 742 742 741 742 742 742 742 743 744 745 745 745 744 744 745 745 746 746 747 748 749 749 750 750 751 752 753 754 754 755 756 757 759 760 762 764 765 766 767 768 769 770 771 772 773 775 776 777 778 779 780 781 783 784 786 787 789 790 790 791 792 792 793 793 794 795 795 795
739 738 738 739 739 739 739 740 741 742 742 742 741 741 742 743 743 744 745 746 747 747 747 747 748 749 750 750 751 752 753 754 755 757 758 760 761 763 764 765 766 767 768 769 770 770 772 773 774 775 776 778 779 780 781 783 784 786 787 788 789 790 790 790 791 791 792 792 793
735 735 735 736 736 736 737 737 738 739 739 739 739 739 740 741 742 742 743 744 745 745 745 745 746 747 748 749 749 750 751 752 753 755 756 757 759 760 761 762 763 764 765 766 767 768 769 770 771 772 774 775 776 777 779 780 782 783 785 786 787 787 788 788 788 789 789 790 790
733 733 733 733 733 734 734 735 735 736 736 736 737 738 739 740 740 740 741 742 743 743 744 743 744 745 746 746 747 748 749 750 751 752 754 755 756 757 758 759 760 761 762 764 765 765 767 768 769 770 771 772 773 775 776 777 779 780 782 783 784 785 785 786 786 786 787 787 787
730 730 731 731 731 731 732 733 733 734 734 735 735 736 737 737 738 738 739 740 740 741 740 741 742 742 743 744 744 745 746 747 749 750 751 752 753 754 755 755 757 758 759 760 761 763 764 765 765 767 768 770 771 772 774 775 777 778 780 780 782 782 783 783 784 784 785 785 785
729 729 729 729 729 730 730 730 731 731 731 732 733 734 735 735 735 736 737 737 738 738 738 739 739 740 740 740 741 742 743 745 745 747 748 749 750 750 751 752 754 755 756 757 758 759 760 761 762 764 766 767 769 770 771 773 774 776 777 778 779 780 780 780 781 782 782 782 783
727 727 727 727 728 728 728 728 728 729 729 730 730 731 732 733 733 734 735 735 735 735 736 736 736 737 737 738 738 739 740 741 742 743 744 745 746 747 749 750 750 752 753 754 755 756 757 758 760 761 763 765 766 767 769 770 772 773 774 775 776 776 777 777 778 779 780 780 780
726 726 726 726 726 726 726 726 726 726 727 727 727 728 729 730 731 732 732 732 732 733 733 734 734 734 735 735 735 736 737 737 738 739 740 741 742 744 745 746 747 749 750 751 752 753 754 755 757 758 760 762 763 765 766 768 770 771 772 772 773 773 774 774 775 776 777 777 777
725 725 724 724 724 724 724 724 724 724 724 725 725 725 726 727 728 729 729 729 729 730 730 731 731 731 732 733 733 734 734 735 735 736 737 737 739 740 741 743 744 745 747 749 750 750 751 752 754 756 758 759 760 762 764 765 767 768 769 770 770 770 771 772 773 774 774 774 775
723 723 723 723 723 722 722 721 721 722 722 722 722 723 724 724 725 725 726 726 727 727 728 728 729 729 730 731 732 732 733 734 734 735 735 735 735 737 738 740 741 742 744 745 747 748 749 750 752 754 755 757 758 760 762 763 765 765 766 767 767 768 769 769 770 771 771 771 772
722 722 722 722 721 720 720 720 719 719 719 719 720 720 721 721 722 722 722 723 724 724 725 725 726 727 728 729 730 731 732 732 733 734 734 734 734 735 735 737 738 739 741 742 744 745 746 748 750 751 753 755 756 758 760 761 762 763 764 765 765 765 766 767 768 768 769 769 769
720 720 720 720 719 719 718 718 717 717 717 717 717 718 718 718 718 718 719 719 720 721 721 722 723 724 725 726 727 728 729 730 730 731 732 733 733 734 734 735 735 737 738 739 741 742 743 745 747 749 751 753 755 756 758 759 760 760 761 762 763 763 764 764 765 765 766 766 766
718 718 718 718 718 717 717 716 715 715 715 715 715 715 715 715 715 715 715 715 716 717 718 719 720 721 722 723 724 725 725 726 727 728 729 730 731 732 733 733 734 735 736 737 738 740 741 743 745 746 749 751 753 754 755 756 757 758 759 760 760 760 761 762 762 763 764 764 764
717 717 716 716 716 716 715 715 714 713 713 712 712 712 712 711 711 711 711 711 711 712 713 714 715 716 717 718 719 720 721 722 723 725 726 727 729 730 730 732 733 733 734 735 736 738 740 741 743 745 746 748 750 752 753 754 755 755 756 757 757 758 759 759 760 760 761 761 761
715 715 715 715 715 714 714 714 713 712 712 711 710 710 710 709 709 708 707 707 708 708 709 709 709 710 710 712 714 715 716 718 720 721 722 724 725 726 728 729 730 731 732 733 734 736 737 739 740 742 744 746 747 749 750 751 752 753 753 754 755 755 756 756 757 758 758 758 758
713 713 713 713 713 713 713 712 712 712 711 711 710 710 710 710 709 708 708 708 708 708 707 707 706 706 707 708 710 711 712 714 716 717 719 720 721 723 724 726 728 729 730 731 732 733 735 736 738 740 741 743 745 746 747 748 749 750 750 751 752 752 753 754 754 755 755 755 755
712 712 711 711 711 711 711 711 711 711 711 711 711 711 711 711 710 710 710 710 710 710 710 709 709 708 708 708 709 710 711 712 713 714 715 716 718 720 721 723 724 725 727 728 729 730 732 734 735 737 738 740 741 743 744 745 746 746 747 748 749 750 750 751 751 752 752 752 753
710 710 710 709 709 709 709 709 709 709 709 709 710 710 710 710 710 711 711 711 711 711 711 711 711 711 710 710 710 710 710 710 711 712 713 714 715 717 718 720 721 722 723 724 725 727 729 730 732 734 735 737 738 740 741 742 742 743 744 745 746 747 748 748 749 749 750 750 750
707 707 707 707 707 706 706 706 707 707 707 707 707 707 708 708 708 709 709 709 709 710 711 711 711 712 712 711 711 711 710 710 710 710 710 711 713 714 715 716 717 718 719 720 721 723 725 727 728 730 731 733 735 736 738 738 739 740 741 742 743 744 745 745 746 746 746 747 747
705 705 704 704 704 704 704 704 704 704 704 705 705 705 705 705 706 706 706 706 707 708 709 710 710 710 710 711 711 710 710 710 709 709 709 709 710 711 712 713 714 715 716 717 718 720 722 723 725 726 728 730 731 733 735 735 736 736 738 739 740 741 742 742 743 743 744 744 744
704 703 702 702 702 701 701 701 701 701 701 702 702 702 702 702 703 703 704 704 704 705 706 707 708 708 708 709 708 708 708 708 708 708 708 707 708 708 709 710 711 712 712 714 715 717 719 720 722 724 725 726 728 730 731 732 733 734 735 736 737 738 739 739 740 740 741 741 741
703 702 701 700 700 699 699 699 699 699 699 699 699 699 699 700 700 700 700 701 701 702 703 704 704 705 706 706 705 705 705 706 706 707 707 707 706 706 707 708 709 709 710 711 713 715 716 718 720 721 723 724 725 726 728 729 730 731 732 733 734 735 735 736 736 737 738 738 739
701 701 700 699 698 697 696 696 696 696 695 696 696 696 696 696 697 697 697 698 698 699 700 700 701 702 702 702 701 702 702 703 704 704 705 705 705 705 705 705 706 707 708 709 711 713 714 715 717 719 720 722 723 724 725 726 727 728 729 730 731 732 732 733 734 734 735 735 736
700 699 698 697 696 695 695 694 694 694 694 694 694 694 694 694 694 694 694 695 695 695 696 696 697 698 698 697 698 698 699 699 700 700 701 701 702 702 702 703 704 704 705 707 709 710 711 713 715 716 718 720 720 721 722 723 724 725 726 727 728 729 730 730 731 731 732 733 733
698 697 696 695 695 694 693 692 692 692 692 691 691 691 691 691 691 691 691 692 692 692 693 693 694 694 693 694 694 695 695 695 695 696 697 697 698 698 699 700 700 701 702 704 705 707 709 710 712 714 715 717 718 719 719 720 721 722 723 724 725 726 726 727 728 729 729 730 730
696 695 695 694 693 692 691 691 690 690 690 690 689 689 689 688 688 688 689 689 690 690 690 690 690 690 690 691 691 692 692 692 692 692 693 694 695 695 696 697 697 697 699 701 703 704 706 708 709 711 713 715 716 716 716 717 719 720 720 721 722 723 724 725 725 726 726 727 727
695 694 693 692 690 690 689 689 689 688 688 687 687 686 686 686 686 686 686 687 687 687 687 687 687 687 688 688 689 690 690 690 690 690 691 692 693 694 695 695 695 695 696 698 700 701 703 705 707 709 710 712 713 714 714 715 716 717 718 719 719 720 721 722 722 723 723 724 725
693 692 691 690 689 688 687 687 686 686 686 685 685 684 684 684 684 684 684 684 684 684 684 684 684 685 685 686 687 687 688 688 689 690 690 691 692 693 693 693 693 693 694 696 697 699 701 702 704 706 708 710 711 712 712 713 714 715 715 716 717 718 718 719 720 720 720 721 722
691 690 689 688 687 686 685 685 685 684 683 683 682 681 681 681 681 681 681 681 682 682 682 682 682 683 683 684 685 685 686 687 687 688 689 690 690 691 691 691 691 692 693 695 696 697 699 700 702 704 705 707 709 709 710 710 711 712 712 713 714 715 715 716 717 717 718 718 719
690 689 688 686 685 685 684 683 682 682 681 680 679 679 679 679 679 679 679 680 680 680 680 680 680 681 681 682 683 683 684 685 686 686 687 688 689 689 690 690 690 691 693 694 695 696 697 698 700 701 703 705 706 707 707 708 708 709 710 711 711 712 713 714 714 715 715 716 716
687 687 686 685 684 683 682 681 681 680 679 677 677 676 676 676 676 676 677 677 678 677 677 677 678 678 679 679 680 681 682 683 684 684 685 686 686 687 688 689 689 690 691 693 694 695 695 696 698 699 701 703 703 704 705 705 706 707 708 708 709 710 710 711 712 712 713 713 713
685 685 684 683 681 681 680 680 679 678 676 675 675 674 674 674 674 674 674 675 675 675 675 675 675 675 676 677 678 679 679 680 681 682 683 683 684 685 686 687 687 688 690 691 692 693 693 694 695 697 698 700 700 701 702 703 703 704 705 706 706 707 708 709 710 710 710 710 710
684 683 681 680 679 679 678 677 676 675 675 674 673 672 672 672 671 671 671 671 672 672 672 672 672 673 674 675 675 676 677 678 679 679 680 681 681 683 684 685 685 686 687 689 690 691 691 692 693 695 696 697 698 699 699 700 701 702 703 704 704 705 706 707 707 707 707 707 708
683 681 680 679 677 676 675 675 674 673 672 672 671 670 670 670 669 669 669 669 669 669 669 670 670 670 671 672 673 674 674 675 676 676 677 678 679 680 681 682 682 683 685 686 687 689 690 690 691 692 694 695 695 696 697 698 699 700 700 701 702 703 704 704 705 705 705 705 705
681 680 679 677 676 675 673 672 671 671 670 670 669 669 668 668 667 667 667 667 666 666 667 667 667 668 669 670 670 671 671 672 673 674 675 675 676 677 678 679 680 680 682 683 685 686 687 688 690 690 691 692 693 694 695 695 696 697 698 699 700 700 701 702 702 703 703 703 703